Weather History for Crestview, FL

Change the Weather History Date:

Saturday, November 3, 2012

  Actual Average Record
Temperature  
Mean Temperature 69 °F -  
Max Temperature 84 °F - - ()
Min Temperature 56 °F - - ()
Cooling Degree Days 4    
Growing Degree Days 19 (Base 50)    
Moisture  
Dew Point 62 °F    
Average Humidity 88    
Maximum Humidity 100    
Minimum Humidity 46    
Precipitation  
Precipitation 0.00 in - - ()
Sea Level Pressure  
Sea Level Pressure 30.09 in    
Wind  
Wind Speed 3 mph (WSW)    
Max Wind Speed 13 mph    
Max Gust Speed -    
Visibility 5 miles    
Events Fog    
T = Trace of Precipitation, MM = Missing Value Source: NWS Daily Summary

Daily Weather History Graph

Daily Weather History Graph

Search for Another Location

Airport:

Trip Planner

Search our weather history database for the weather conditions in past years. The results will help you decide how hot, cold, wet, or windy it might be!

Date:

Astronomy

Nov. 03, 2012 Rise Set
Actual Time 7:02 AM CDT 5:56 PM CDT
Civil Twilight 6:37 AM CDT 6:21 PM CDT
Nautical Twilight 6:09 AM CDT 6:49 PM CDT
Astronomical Twilight 5:40 AM CDT 7:17 PM CDT
Moon 9:42 PM CDT (11/3) 10:59 AM CDT (11/3)
Length of Visible Light 11h 43m
Length of Day
10h 53m
Waning Gibbous, 80% of the Moon is Illuminated
Nov 3
Waning Gibbous
Nov 6
Last Quarter
Nov 13
New
Nov 20
First Quarter
Nov 28
Full

Hourly Weather History & Observations

Time (CDT) Temp. Heat Index Dew Point Humidity Pressure Visibility Wind Dir Wind Speed Gust Speed Precip Events Conditions
12:55 AM 65.1 °F - 64.0 °F 96% 30.06 in 8.0 mi West 5.8 mph - N/A   Clear
1:55 AM 64.4 °F - 64.2 °F 99% 30.05 in 5.0 mi West 5.8 mph - N/A   Clear
2:55 AM 64.4 °F - 64.0 °F 99% 30.05 in 4.0 mi West 5.8 mph - N/A   Clear
3:55 AM 64.0 °F - 63.9 °F 99% 30.06 in 4.0 mi West 4.6 mph - N/A   Clear
4:16 AM 64.4 °F - 62.6 °F 94% 30.06 in 2.5 mi Calm Calm - N/A   Clear
4:20 AM 64.4 °F - 62.6 °F 94% 30.06 in 2.0 mi Calm Calm - N/A   Clear
4:22 AM 64.4 °F - 62.6 °F 94% 30.06 in 1.5 mi Calm Calm - N/A   Clear
4:23 AM 62.6 °F - 62.6 °F 100% 30.06 in 1.2 mi Calm Calm - N/A   Clear
4:25 AM 62.6 °F - 62.6 °F 100% 30.06 in 1.0 mi Calm Calm - N/A   Clear
4:27 AM 62.6 °F - 62.6 °F 100% 30.06 in 0.8 mi Calm Calm - N/A   Clear
4:30 AM 62.6 °F - 62.6 °F 100% 30.06 in 0.5 mi Calm Calm - N/A Fog Fog
4:55 AM 63.0 °F - 62.8 °F 99% 30.07 in 0.5 mi West 3.5 mph - N/A Fog Fog
5:00 AM 62.6 °F - 62.6 °F 100% 30.08 in 0.5 mi West 3.5 mph - N/A Fog Fog
5:34 AM 62.6 °F - 62.6 °F 100% 30.09 in 0.2 mi Calm Calm - N/A Fog Fog
5:55 AM 60.1 °F - 59.9 °F 99% 30.09 in 0.2 mi Calm Calm - N/A Fog Fog
6:55 AM 56.7 °F - 56.3 °F 99% 30.11 in 0.2 mi Calm Calm - N/A Fog Fog
7:55 AM 57.9 °F - 57.7 °F 99% 30.12 in 0.2 mi Calm Calm - N/A Fog Fog
8:10 AM 59.0 °F - 59.0 °F 100% 30.13 in 0.5 mi Calm Calm - N/A Fog Fog
8:16 AM 60.8 °F - 60.8 °F 100% 30.13 in 0.8 mi Calm Calm - N/A   Clear
8:19 AM 60.8 °F - 60.8 °F 100% 30.13 in 1.0 mi Calm Calm - N/A   Clear
8:20 AM 60.8 °F - 60.8 °F 100% 30.13 in 1.2 mi Calm Calm - N/A   Clear
8:21 AM 60.8 °F - 60.8 °F 100% 30.13 in 1.5 mi Calm Calm - N/A   Clear
8:22 AM 62.6 °F - 62.6 °F 100% 30.13 in 2.0 mi Calm Calm - N/A   Clear
8:23 AM 62.6 °F - 62.6 °F 100% 30.13 in 3.0 mi Calm Calm - N/A   Clear
8:55 AM 65.8 °F - 65.7 °F 99% 30.13 in 10.0 mi West 4.6 mph - N/A   Clear
9:55 AM 69.3 °F - 69.3 °F 100% 30.14 in 10.0 mi NW 5.8 mph - N/A   Clear
10:55 AM 76.1 °F - 64.2 °F 67% 30.13 in 10.0 mi NW 6.9 mph - N/A   Clear
11:55 AM 80.6 °F 81.8 °F 62.4 °F 54% 30.11 in 10.0 mi WNW 5.8 mph - N/A   Clear
12:55 PM 82.8 °F 83.1 °F 60.6 °F 47% 30.09 in 10.0 mi NW 5.8 mph - N/A   Partly Cloudy
1:55 PM 82.9 °F 83.2 °F 60.4 °F 46% 30.07 in 10.0 mi Calm Calm - N/A   Partly Cloudy
2:55 PM 82.6 °F 82.8 °F 59.9 °F 46% 30.05 in 10.0 mi Variable 6.9 mph - N/A   Scattered Clouds
3:55 PM 82.2 °F 83.3 °F 62.8 °F 52% 30.05 in 10.0 mi South 12.7 mph - N/A   Clear
4:55 PM 79.9 °F - 61.7 °F 54% 30.04 in 10.0 mi South 12.7 mph - N/A   Clear
5:55 PM 76.5 °F - 61.7 °F 60% 30.06 in 10.0 mi SSW 6.9 mph - N/A   Partly Cloudy
6:55 PM 69.8 °F - 62.4 °F 77% 30.07 in 10.0 mi South 6.9 mph - N/A   Clear
7:55 PM 67.3 °F - 63.0 °F 86% 30.07 in 10.0 mi South 4.6 mph - N/A   Clear
8:55 PM 64.6 °F - 62.8 °F 94% 30.08 in 10.0 mi South 3.5 mph - N/A   Clear
9:55 PM 64.6 °F - 62.4 °F 93% 30.09 in 10.0 mi SSW 4.6 mph - N/A   Clear
10:55 PM 66.6 °F - 62.4 °F 86% 30.09 in 10.0 mi WSW 3.5 mph - N/A   Clear
11:55 PM 60.6 °F - 59.7 °F 97% 30.09 in 10.0 mi Calm Calm - N/A   Clear